Weather History for Montreal, QC

Change the Weather History Date:

Tuesday, January 28, 2014

  Actual Average Record
Temperature  
Mean Temperature 4 °F -  
Max Temperature 12 °F 20 °F 42 °F (2006)
Min Temperature -3 °F 6 °F -13 °F (2003)
Degree Days  
Heating Degree Days 60    
Moisture  
Dew Point -6 °F    
Average Humidity 63    
Maximum Humidity 72    
Minimum Humidity 43    
Precipitation  
Precipitation 0.00 in - - ()
Sea Level Pressure  
Sea Level Pressure 30.12 in    
Wind  
Wind Speed 12 mph ()    
Max Wind Speed 24 mph    
Max Gust Speed 32 mph    
Visibility 13.2 miles    
Events Snow    
Averages and records for this station are not official NWS values.
T = Trace of Precipitation, MM = Missing Value Source: Averaged Metar Reports

Daily Weather History Graph

Daily Weather History Graph

Search for Another Location

Airport:

Trip Planner

Search our weather history database for the weather conditions in past years. The results will help you decide how hot, cold, wet, or windy it might be!

Date:

Astronomy

Jan. 28, 2014 Rise Set
Actual Time 7:20 AM EST 4:55 PM EST
Civil Twilight 6:48 AM EST 5:27 PM EST
Nautical Twilight 6:12 AM EST 6:03 PM EST
Astronomical Twilight 5:37 AM EST 6:38 PM EST
Moon 5:01 AM EST (1/28) 2:41 PM EST (1/28)
Length of Visible Light 10h 39m
Length of Day
9h 35m
Waning Crescent, 7% of the Moon is Illuminated
Jan 28
Waning Crescent
Jan 30
New
Feb 6
First Quarter
Feb 14
Full
Feb 22
Last Quarter

Hourly Weather History & Observations

Time (EST) Temp. Windchill Dew Point Humidity Pressure Visibility Wind Dir Wind Speed Gust Speed Precip Events Conditions
12:00 AM -0.4 °F -15.7 °F -7.6 °F 72% 30.01 in 15.0 mi SW 9.2 mph - N/A   Scattered Clouds
1:00 AM 0 °F - -7 °F 61% 30.02 in 15 mi WSW 8.1 mph - -   Mostly Cloudy
1:00 AM -0.4 °F -13.4 °F -7.6 °F 72% 30.02 in 15.0 mi WSW 6.9 mph - N/A   Mostly Cloudy
2:00 AM -0.4 °F -16.7 °F -7.6 °F 72% 30.05 in 15.0 mi West 10.4 mph - N/A   Scattered Clouds
3:00 AM -2.2 °F -18.0 °F -9.4 °F 71% 30.06 in 14.0 mi WSW 9.2 mph - N/A   Partly Cloudy
4:00 AM -2.2 °F -16.8 °F -11.2 °F 66% 30.05 in 15.0 mi WSW 8.1 mph - N/A   Partly Cloudy
5:00 AM -4.0 °F -19.0 °F -13.0 °F 65% 30.07 in 15.0 mi WSW 8.1 mph - N/A   Partly Cloudy
5:55 AM -2.2 °F -18.9 °F -13.0 °F 60% 30.09 in 10.0 mi WSW 10.4 mph - N/A Snow Light Snow
6:00 AM -2.2 °F -21.5 °F -13.0 °F 60% 30.09 in 10.0 mi WSW 13.8 mph - N/A Snow Light Snow
6:12 AM -2.2 °F -21.5 °F -11.2 °F 66% 30.11 in 8.0 mi WSW 13.8 mph - N/A Snow Light Snow
6:28 AM -2.2 °F -22.2 °F -9.4 °F 71% 30.12 in 12.0 mi WSW 15.0 mph - N/A Snow Light Snow
6:48 AM -2.2 °F -22.2 °F -9.4 °F 71% 30.13 in 10.0 mi WSW 15.0 mph 23.0 mph N/A   Scattered Clouds
7:00 AM -1 °F - -9 °F 57% 30.14 in 6 mi WSW 15.0 mph - - Snow Light Snow
7:00 AM -2.2 °F -22.9 °F -9.4 °F 71% 30.14 in 6.0 mi WSW 16.1 mph 21.9 mph N/A Snow Light Snow
7:20 AM -0.4 °F -20.5 °F -7.6 °F 72% 30.14 in 30.0 mi West 16.1 mph - N/A   Partly Cloudy
8:00 AM -0.4 °F -19.9 °F -11.2 °F 60% 30.16 in 30.0 mi WSW 15.0 mph 20.7 mph N/A   Partly Cloudy
9:00 AM -0.4 °F -19.2 °F -11.2 °F 60% 30.18 in 30.0 mi WSW 13.8 mph 20.7 mph N/A   Partly Cloudy
10:00 AM 3.2 °F -18.1 °F -7.6 °F 61% 30.20 in 30.0 mi SW 20.7 mph 27.6 mph N/A   Partly Cloudy
11:00 AM 5.0 °F -15.7 °F -5.8 °F 61% 30.21 in 30.0 mi SW 20.7 mph - N/A   Partly Cloudy
12:00 PM 8.6 °F -11.4 °F -4.0 °F 57% 30.18 in 30.0 mi WSW 21.9 mph 28.8 mph N/A   Partly Cloudy
1:00 PM 10 °F - -2 °F 43% 30.16 in 28 mi SW 17.3 mph - -   Partly Cloudy
1:00 PM 10.4 °F -6.6 °F -2.2 °F 57% 30.16 in 30.0 mi SW 16.1 mph - N/A   Partly Cloudy
2:00 PM 12.2 °F -7.1 °F -0.4 °F 57% 30.14 in 15.0 mi SW 23.0 mph - N/A   Scattered Clouds
3:00 PM 12.2 °F -7.5 °F -0.4 °F 57% 30.13 in 15.0 mi SW 24.2 mph 31.1 mph N/A Snow Low Drifting Snow
4:00 PM 12.2 °F -7.1 °F 1.4 °F 62% 30.13 in 15.0 mi SW 23.0 mph 31.1 mph N/A Snow Low Drifting Snow
5:00 PM 12.2 °F -6.7 °F 3.2 °F 67% 30.13 in 15.0 mi SSW 21.9 mph 29.9 mph N/A Snow Low Drifting Snow
6:00 PM 10.4 °F -9.1 °F 1.4 °F 67% 30.14 in 15.0 mi SW 21.9 mph 27.6 mph N/A Snow Low Drifting Snow
7:00 PM 10 °F - -1 °F 48% 30.15 in 15 mi SW 19.6 mph - -   Scattered Clouds
7:00 PM 10.4 °F -7.7 °F -0.4 °F 62% 30.15 in 15.0 mi SW 18.4 mph 25.3 mph N/A   Partly Cloudy
8:00 PM 10.4 °F -9.1 °F -0.4 °F 62% 30.15 in 15.0 mi SW 21.9 mph 32.2 mph N/A   Scattered Clouds
9:00 PM 8.6 °F -10.0 °F -0.4 °F 67% 30.16 in 15.0 mi SW 18.4 mph 27.6 mph N/A   Scattered Clouds
10:00 PM 8.6 °F -9.5 °F -2.2 °F 62% 30.16 in 15.0 mi SSW 17.3 mph 24.2 mph N/A   Mostly Cloudy
11:00 PM 8.6 °F -10.0 °F -2.2 °F 62% 30.16 in 15.0 mi SSW 18.4 mph - N/A   Mostly Cloudy